Location: Lafig�re
(44.4503°N, 4.0357°E)
Time: 15:39:19
(UTC+00:00)

Vanguard 2 Rocket - Pass Details

Date: 31 January 2021
Orbit: 554 x 3325 km, 32.9° (Epoch: 06 March)

Event Time Altitude Azimuth Distance (km) Brightness Sun altitude
Rises 15:13:38 0° 260° (W) 7,006 12.5 13.9°
Reaches altitude 10° 15:18:59 10° 256° (WSW) 5,696 12.3 13.2°
Maximum altitude 15:33:51 47° 190° (S) 2,497 9.8 11.1°
Drops below altitude 10° 15:42:40 10° 119° (ESE) 3,471 9.7 9.9°
Sets 15:45:08 0° 113° (ESE) 4,153 10.0 9.5°
